Hourly Data Report for August 01, 2017

TORONTO CITY
ONTARIO

43°40'00.000" N
79°24'00.000" W
112.50 m
6158355
71508
XTO

Download Data

Hourly Data (August 2017)
Hourly Data Report for August 1, 2017
TIME
LST
Temp Definition
°C
Dew Point Definition
°C
Rel Hum Definition
%
Precip. Amount Definition
mm

Wind Dir Definition
10's deg

Wind Spd Definition
km/h
Visibility Definition
km
Stn Press Definition
kPa
Hmdx Definition


Wind Chill Definition


Weather Definition


00:00 22.9 16.9 69 0.0 LegendMM LegendMM   100.47 28   LegendNANA
01:00 22.2 16.3 69 0.0 LegendMM LegendMM   100.46 27   LegendNANA
02:00 22.1 16.4 70 0.0 LegendMM LegendMM   100.44 27   LegendNANA
03:00 21.3 16.4 73 0.0 LegendMM LegendMM   100.42 26   LegendNANA
04:00 21.0 16.3 75 0.0 LegendMM LegendMM   100.42 26   LegendNANA
05:00 21.1 16.1 73 0.0 LegendMM LegendMM   100.43 26   LegendNANA
06:00 20.4 16.2 77 0.0 LegendMM LegendMM   100.47 25   LegendNANA
07:00 21.7 17.1 75 0.0 LegendMM LegendMM   100.49 27   LegendNANA
08:00 24.1 17.7 68 0.0 LegendMM LegendMM   100.52 30   LegendNANA
09:00 25.0 16.9 61 0.0 LegendMM LegendMM   100.50 30   LegendNANA
10:00 26.6 16.0 52 0.0 LegendMM LegendMM   100.51 31   LegendNANA
11:00 26.8 16.7 54 0.0 LegendMM LegendMM   100.48 32   LegendNANA
12:00 26.9 16.9 54 0.0 LegendMM LegendMM   100.47 32   LegendNANA
13:00 27.6 17.4 54 0.0 LegendMM LegendMM   100.39 33   LegendNANA
14:00 28.7 16.4 47 0.0 LegendMM LegendMM   100.34 34   LegendNANA
15:00 24.2 13.6 52 0.0 LegendMM LegendMM   100.35 27   LegendNANA
16:00 23.1 17.8 72 0.4 LegendMM LegendMM   100.31 29   LegendNANA
17:00 24.1 16.7 63 0.0 LegendMM LegendMM   100.28 29   LegendNANA
18:00 25.4 16.1 56 0.0 LegendMM LegendMM   100.28 30   LegendNANA
19:00 25.0 16.4 59 0.0 LegendMM LegendMM   100.27 30   LegendNANA
20:00 24.0 16.5 63 0.0 LegendMM LegendMM   100.29 29   LegendNANA
21:00 23.6 16.4 64 0.0 LegendMM LegendMM   100.34 28   LegendNANA
22:00 22.8 16.7 68 0.0 LegendMM LegendMM   100.32 28   LegendNANA
23:00 22.4 17.5 74 0.0 LegendMM LegendMM   100.29 28   LegendNANA

Notes on Data Quality.

Legend

  • E = Estimated
  • M = Missing
  • NA = Not Available*
  • [empty] = Indicates an unobserved value
Date modified: